Flag for Switzerland Weather past 2 weeks in Thusis, Graubünden, Switzerland

Now
40 °F

Quite cool.


Feels Like: 33 °F
Forecast: 21 / 30 °F
Wind: 14 mph from Northeast

Location: Chur-Ems

Current Time: Dec 25, 2014 at 6:15:07 PM

Latest Report: Dec 25, 2014 at 5:00 PM


Visibility: N/A

Pressure: 30.32 "Hg

Humidity: 80%

Dew point: 35 °F

Location of ThusisLocation

Historic Weather in Thusis — Graph

°F

Thusis temperature yesterday

Maximum temperature yesterday: 40 °F (at 2:00 PM)
Minimum temperature yesterday: 31 °F (at 8:00 AM)
Average temperature yesterday: 34 °F

Past Weeks' High & Low Weather Summary

 TemperatureHumidityPressure
High57 °F (Dec 13, 2:00 PM)97% (Dec 16, 8:00 AM)30.62 "Hg (Dec 16, 8:00 AM)
Low31 °F (Dec 22, 7:00 AM)30% (Dec 12, 3:00 PM)29.90 "Hg (Dec 17, 2:00 PM)
Average41 °F72%30.22 "Hg
* Reported Dec 10 5:00 PM — Dec 25 5:00 PM, Thusis, Weather by CustomWeather, © 2014

Note: Actual official high and low records may vary slightly from our data, if they occured in-between our weather recording intervals... More about our weather records

Advertising

Thusis weather history for previous 24 hours

 ConditionsComfort  
Time TempWeatherWind HumidityBarometerVisibility
5:00 PM
Dec 25
40 °FQuite cool.14 mph80%30.32 "HgN/A
4:00 PM41 °FFog.12 mph86%30.32 "Hg3 mi
3:00 PM42 °FQuite cool.13 mph85%30.29 "HgN/A
2:00 PM40 °FChilly.7 mph86%30.32 "HgN/A
1:00 PM38 °FDrizzle. Low clouds.7 mph88%30.34 "Hg5 mi
12:00 PM40 °FChilly.1 mph70%30.34 "HgN/A
11:00 AM39 °FChilly.1 mph65%30.36 "HgN/A
10:00 AM38 °FFog.6 mph65%30.36 "Hg6 mi
9:00 AM36 °FChilly.2 mph69%30.37 "HgN/A
8:00 AM36 °FChilly.2 mph71%30.36 "HgN/A
7:00 AM35 °FOvercast.1 mph76%30.37 "Hg9 mi
6:00 AM36 °FChilly.3 mph67%30.35 "HgN/A
5:00 AM36 °FChilly.3 mph69%30.36 "HgN/A
3:00 AM36 °FChilly.5 mph66%30.37 "HgN/A
2:00 AM34 °FChilly.3 mph73%30.38 "HgN/A
1:00 AM34 °FClear.3 mph74%30.40 "Hg12 mi
12:00 AM32 °FChilly.2 mph81%30.41 "HgN/A
11:00 PM
Dec 24
34 °FChilly.3 mph76%30.41 "HgN/A
10:00 PM33 °FFog.6 mph78%30.41 "Hg6 mi
9:00 PM32 °FChilly.3 mph83%30.41 "HgN/A
8:00 PM31 °FChilly.2 mph87%30.41 "HgN/A
7:00 PM32 °FFog.1 mph88%30.40 "Hg5 mi
6:00 PM34 °FChilly.1 mph82%30.36 "HgN/A
Weather by CustomWeather, © 2014

See weather overviewHow to use our weather pages